Погода Баяндай

Погода Баяндай : погода сейчас, прогноз погоды и архив. Всё, что Вы хотите узнать о погоде Баяндай!

Хотите узнать прогноз погоды Баяндай? Тогда Вам сюда: Погода Баяндай

Поиск расширенной информации на нашем сайте:

Другие новости

Новости СМИ2

Главная страница сайта

Новости сайта

03.07.2017

Напоминаем, что на нашем специализированном сайте Метеоцентр.Азия вы можете получить высокодетализированные автоматические прогнозы погоды по пунктам России, СНГ и мира в авиационном формате (включающие направление и скорость ветра, видимость, явления погоды, количество и форму облачности, нижнюю и верхнюю границу облачности).


Погода Баяндай - сегодня

Время (UTC), дата Ветер
(°,м/с) 
Видим.   Явления Облачность Т
(°С)
Тd
(°С)
f(%) Тe
(°С)
Pmin
(гПа)
dP
(гПа)
Po
(мм)
O2
(г/м3)
Тmin Tmax R s Состояние
почвы
15 09.12.17 050 (СВ) 20000 м    ясно 
-22.4 -23.6 90 -23  1040.9  704  311           
18 09.12.17 040 (СВ) 20000 м    ясно 
-26.1 -27.3 90 -29  1043.1  0.5  705  316           
21 09.12.17 050 (СВ) 20000 м    ясно 
-27.8 -29.1 89 -28  1043  -0.8  704  318           
00 10.12.17 050 (СВ) 20000 м    ясно 
-30 -31.7 85 -34  1044.7  0.6  705  321  -30.2      12  мокрый или
старый снег
10-40% 
03 10.12.17 050 (СВ) 20000 м    ясно 
-30.8 -32.6 84 -37  1045.1  0.1  705  322  -31.7         
06 10.12.17 050 (СВ) 20000 м    ясно 
-29 -30.7 85 -33  1044.3  705  319           
09 10.12.17 040 (СВ) 20000 м    ясно 
-29.5 -31.3 84 -30  1045.2  0.7  705  320           
12 10.12.17 030 (СВ) 20000 м    ясно 
-29 -30.7 85 -33  1045.5  0.4  706  320    -28.1       
15 10.12.17 050 (СВ) 20000 м    ясно 
-31.6 -33.3 85 -37  1046.4  -0.3  705  323           
18 10.12.17 040 (СВ) 20000 м    ясно 
-33.7 -35.3 85 -40  1047.1  -0.2  705  326           
21 10.12.17 040 (СВ) 20000 м    ясно 
-34.3 -35.9 85 -42  1046.5  -0.8  705  327           
00 11.12.17 050 (СВ) 20000 м    ясно 
-36 -37.8 83 -42  1046.9  -0.3  704  329  -36.3      11  равномерный
сухой снег
100% 
03 11.12.17 030 (СВ) 20000 м    ясно 
-34.4 -36.2 83 -41  1046.1  -0.1  704  327  -36.7         
06 11.12.17 030 (СВ) 20000 м    ясно 
-31.8 -33.5 85 -38  1042.7  -1.9  703  322           
09 11.12.17 030 (СВ) 20000 м    ясно 
-30.2 -31.9 85 -37  1041.8  -0.2  703  320           
12 11.12.17 050 (СВ) 20000 м    ясно 
-29.9 -31.7 84 -35  1041.5  -0.1  703  320    -29.5       
15 11.12.17 060 (СВ) 20000 м    ясно 
-30.4 -32.1 85 -37  1042  0.2  703  320           
18 11.12.17 040 (СВ) 20000 м    ясно 
-30.7 -32.4 85 -36  1042.3  0.2  703  321           
21 11.12.17 040 (СВ) 20000 м    ясно 
-30.5 -32.4 84 -36  1041.8  -0.5  703  320           
00 12.12.17 040 (СВ) 20000 м    ясно 
-32.5 -34.2 85 -36  1042.6  703  323  -33.5      11  равномерный
сухой снег
100% 
03 12.12.17 040 (СВ) 20000 м    ясно 
-29.8 -31.5 85 -38  1040.8  -0.5  702  319           
06 12.12.17 050 (СВ) 20000 м    1/0 верхняя 
[Ci fib]
-27.7 -29.5 84 -34  1037.3  -2.3  701  316           
09 12.12.17 030 (СВ) 20000 м    4/0 верхняя 
[Cs]
-27 -28.8 85 -34  1035.6  -1.3  700  314           
12 12.12.17 030 (СВ) 20000 м    10/0 верхняя 
[Cs]
-26 -27.8 85 -32  1033.6  -1.3  699  313    -25.7       
15 12.12.17 040 (СВ) 20000 м    10/0 верхняя 
[Cs]
-25.7 -27.5 85 -32  1033.3  -0.2  698  312           
Время (UTC), дата Ветер
(°,м/с) 
Видим.   Явления Облачность Т
(°С)
Тd
(°С)
f(%) Тe
(°С)
Pmin
(гПа)
dP
(гПа)
Po
(мм)
O2
(г/м3)
Тmin Tmax R s Состояние
почвы

Для получения пояснительной информации подведите курсор к названию столбца.

ПОГОДА Баяндай - архив

Всё, что Вы хотите узнать о погоде Баяндай - удобно и подробно!

Выберите нужную дату (начиная с 1 января 2015* года) и нажмите кнопку "Найти".
Будут отображены архивные сводки погоды по пункту Баяндай, начиная с указанной даты.


Отображать данные в формате CSV (для использования в таблицах Excel)


Внимание! Наш архив погоды предназначен исключительно для личного некоммерческого использования в познавательных целях. Если Вам необходимы официальные справки о состоянии погоды (для производственных, юридических, коммерческих и т.п. целей), обращайтесь в органы Росгидромета.

*Примечание: данная дата относится к архиву по метеостанциям СССР (Россия, СНГ, Балтия).
Архив по метеостанциям Зарубежной Европы и Азии (кроме Китая) хранится 10 дней, по другим регионам земного шара (Китай, Африка, Америка, Австралия, Океания) - 1 день.

Баяндай - район местоположения метеостанции


Название, широта, долгота, высота метеостанции:
Баяндай 53.1°ш. 105.5°д. 762 м над ур. моря [Российская Федерация]

Дополнительная информация

В oтличие oт бoльшинства пoгoдных сайтoв мы публикуем пoдрoбную метеoинфoрмацию в детальнoм прoфессиoнальнoм фoрмате.

Характеристики температуры и влажнoсти вoздуха измеряются на высoте 2 м в тени вдали oт зданий и деревьев.
Скoрoсть ветра измеряется на высoте 10 м (на урoвне рoста челoвека скoрoсть ветра ниже в 1.5-2 раза). Если метеoстанция нахoдится в гoрoде или в лесу, тo скoрoсть ветра занижена на 2-4 м/с пo сравнению с oткрытым местoм. Скoрoсть ветра над акватoриями крупных рек и oзёр, а также на вершинах хoлмoв на 2-5 м/с выше, чем в oбычных услoвиях.
Атмoсфернoе давление в разных тoчках местнoсти мoжет значительнo oтличаться oт давления на метеoстанции, в зависимoсти oт услoвий рельефа (при пoдъёме на 10 м давление пoнижается примернo на 1 мм рт.ст.).